| time (UTC) | temp F | wind direction | speed MPH | gust MPH | rain 1hr in | rain 24hr in | rain mn in | humidity % | barometer mb |
| 20260505065519 | 56 | 0.0 | 0.0 | 0.00 | 0.00 | 0.00 | 73 | 1012.6 | |
| 20260505064535 | 56 | 0.0 | 0.0 | 0.00 | 0.00 | 0.00 | 72 | 1012.6 | |
| 20260505063531 | 57 | 0.0 | 0.0 | 0.00 | 0.00 | 0.00 | 72 | 1012.7 | |
| 20260505062546 | 57 | 137 | 0.0 | 1.0 | 0.00 | 0.00 | 0.00 | 72 | 1012.7 |
| 20260505061522 | 57 | 0.0 | 0.0 | 0.00 | 0.00 | 0.00 | 71 | 1012.8 | |
| 20260505060518 | 58 | 0.0 | 0.0 | 0.00 | 0.00 | 0.00 | 71 | 1012.8 | |
| 20260505055534 | 58 | 0.0 | 0.0 | 0.00 | 0.00 | 0.00 | 71 | 1012.9 | |
| 20260505054550 | 58 | 137 | 0.0 | 1.0 | 0.00 | 0.00 | 0.00 | 70 | 1012.9 |
| 20260505053526 | 58 | 0.0 | 0.0 | 0.00 | 0.00 | 0.00 | 70 | 1012.9 | |
| 20260505052522 | 58 | 137 | 0.0 | 1.0 | 0.00 | 0.00 | 0.00 | 70 | 1012.8 |
| 20260505051518 | 59 | 137 | 0.0 | 1.0 | 0.00 | 0.00 | 0.00 | 69 | 1012.9 |
| 20260505050554 | 59 | 0.0 | 0.0 | 0.00 | 0.00 | 0.00 | 69 | 1013.0 | |
| 20260505041533 | 60 | 137 | 0.0 | 1.0 | 0.00 | 0.00 | 0.00 | 67 | 1012.9 |
| 20260505040549 | 60 | 0.0 | 0.0 | 0.00 | 0.00 | 0.00 | 66 | 1012.9 | |
| 20260505035525 | 60 | 0.0 | 0.0 | 0.00 | 0.00 | 0.00 | 66 | 1012.8 | |
| 20260505034521 | 61 | 137 | 0.0 | 1.0 | 0.00 | 0.00 | 0.00 | 65 | 1012.9 |
| 20260505033536 | 61 | 137 | 0.0 | 1.0 | 0.00 | 0.00 | 0.00 | 64 | 1013.0 |
| 20260505032535 | 61 | 137 | 0.0 | 1.0 | 0.00 | 0.00 | 0.00 | 64 | 1012.9 |
| 20260505031528 | 62 | 0.0 | 0.0 | 0.00 | 0.00 | 0.00 | 63 | 1013.1 | |
| 20260505030524 | 62 | 137 | 0.0 | 1.0 | 0.00 | 0.00 | 0.00 | 62 | 1012.9 |
| 20260505025520 | 63 | 137 | 0.0 | 1.0 | 0.00 | 0.00 | 0.00 | 62 | 1012.9 |
| 20260505024535 | 63 | 138 | 0.0 | 1.0 | 0.00 | 0.00 | 0.00 | 61 | 1012.9 |
| 20260505023531 | 63 | 155 | 0.0 | 1.0 | 0.00 | 0.00 | 0.00 | 60 | 1012.8 |
| 20260505022527 | 63 | 155 | 0.0 | 1.0 | 0.00 | 0.00 | 0.00 | 59 | 1012.6 |
| 20260505021543 | 64 | 139 | 0.0 | 2.0 | 0.00 | 0.00 | 0.00 | 58 | 1012.8 |
| 20260505020519 | 64 | 172 | 0.0 | 1.0 | 0.00 | 0.00 | 0.00 | 58 | 1012.6 |
| 20260505015535 | 65 | 0.0 | 0.0 | 0.00 | 0.00 | 0.00 | 57 | 1012.5 | |
| 20260505014530 | 66 | 172 | 0.0 | 1.0 | 0.00 | 0.00 | 0.00 | 56 | 1012.4 |
| 20260505013526 | 66 | 173 | 0.0 | 1.0 | 0.00 | 0.00 | 0.00 | 55 | 1012.5 |
| 20260505012522 | 67 | 173 | 0.0 | 1.0 | 0.00 | 0.00 | 0.00 | 54 | 1012.4 |
| 20260505011537 | 68 | 173 | 1.0 | 1.0 | 0.00 | 0.00 | 0.00 | 54 | 1012.4 |
| 20260505010532 | 69 | 173 | 1.0 | 2.0 | 0.00 | 0.00 | 0.00 | 53 | 1012.4 |
| 20260505005528 | 70 | 171 | 0.0 | 3.0 | 0.00 | 0.00 | 0.00 | 53 | 1012.3 |
| 20260505004524 | 71 | 169 | 0.0 | 1.0 | 0.00 | 0.00 | 0.00 | 52 | 1012.2 |
| 20260505003519 | 72 | 158 | 2.0 | 4.0 | 0.00 | 0.00 | 0.00 | 51 | 1012.1 |
| 20260505002555 | 73 | 164 | 1.0 | 4.0 | 0.00 | 0.00 | 0.00 | 51 | 1012.1 |
| 20260505001531 | 74 | 166 | 2.0 | 4.0 | 0.00 | 0.00 | 0.00 | 51 | 1012.0 |
| 20260505000526 | 75 | 170 | 3.0 | 6.0 | 0.00 | 0.00 | 0.00 | 50 | 1012.0 |
| 20260504235522 | 75 | 163 | 2.0 | 8.0 | 0.00 | 0.00 | 0.00 | 50 | 1012.0 |
| 20260504234518 | 75 | 162 | 4.0 | 11.0 | 0.00 | 0.00 | 0.00 | 50 | 1012.0 |
| 20260504233534 | 76 | 174 | 3.0 | 8.0 | 0.00 | 0.00 | 0.00 | 51 | 1011.9 |
| 20260504232529 | 76 | 165 | 3.0 | 8.0 | 0.00 | 0.00 | 0.00 | 51 | 1012.1 |
| 20260504231524 | 77 | 202 | 2.0 | 7.0 | 0.00 | 0.00 | 0.00 | 51 | 1012.0 |
| 20260504230520 | 77 | 161 | 3.0 | 6.0 | 0.00 | 0.00 | 0.00 | 50 | 1012.0 |
| 20260504225556 | 77 | 158 | 3.0 | 7.0 | 0.00 | 0.00 | 0.00 | 50 | 1011.9 |
| 20260504224532 | 77 | 178 | 4.0 | 10.0 | 0.00 | 0.00 | 0.00 | 49 | 1012.2 |
| 20260504223527 | 78 | 177 | 3.0 | 8.0 | 0.00 | 0.00 | 0.00 | 49 | 1012.2 |
| 20260504222543 | 78 | 223 | 3.0 | 8.0 | 0.00 | 0.00 | 0.00 | 49 | 1012.2 |
| 20260504221519 | 78 | 239 | 4.0 | 13.0 | 0.00 | 0.00 | 0.00 | 50 | 1012.3 |
| 20260504220534 | 78 | 180 | 3.0 | 7.0 | 0.00 | 0.00 | 0.00 | 51 | 1012.3 |
| 20260504215550 | 78 | 185 | 3.0 | 10.0 | 0.00 | 0.00 | 0.00 | 49 | 1012.4 |
| 20260504214545 | 79 | 183 | 3.0 | 7.0 | 0.00 | 0.00 | 0.00 | 48 | 1012.4 |
| 20260504213541 | 79 | 198 | 3.0 | 8.0 | 0.00 | 0.00 | 0.00 | 48 | 1012.4 |
| 20260504212517 | 80 | 161 | 2.0 | 4.0 | 0.00 | 0.00 | 0.00 | 50 | 1012.3 |
| 20260504211533 | 80 | 223 | 3.0 | 9.0 | 0.00 | 0.00 | 0.00 | 50 | 1012.3 |
| 20260504210528 | 80 | 161 | 4.0 | 13.0 | 0.00 | 0.00 | 0.00 | 50 | 1012.5 |
| 20260504205524 | 80 | 186 | 3.0 | 8.0 | 0.00 | 0.00 | 0.00 | 51 | 1012.6 |
| 20260504204601 | 79 | 185 | 5.0 | 9.0 | 0.00 | 0.00 | 0.00 | 52 | 1012.6 |
| 20260504203516 | 79 | 177 | 3.0 | 7.0 | 0.00 | 0.00 | 0.00 | 52 | 1012.6 |
| 20260504202532 | 79 | 158 | 5.0 | 11.0 | 0.00 | 0.00 | 0.00 | 52 | 1012.7 |
| 20260504201548 | 79 | 177 | 4.0 | 9.0 | 0.00 | 0.00 | 0.00 | 52 | 1012.9 |
| 20260504200523 | 81 | 148 | 3.0 | 8.0 | 0.00 | 0.00 | 0.00 | 53 | 1013.0 |
| 20260504195539 | 80 | 205 | 3.0 | 7.0 | 0.00 | 0.00 | 0.00 | 53 | 1013.0 |
| 20260504194535 | 81 | 212 | 3.0 | 9.0 | 0.00 | 0.00 | 0.00 | 54 | 1013.1 |
| 20260504193531 | 80 | 155 | 2.0 | 6.0 | 0.00 | 0.00 | 0.00 | 55 | 1013.3 |
| 20260504192527 | 80 | 266 | 4.0 | 8.0 | 0.00 | 0.00 | 0.00 | 55 | 1013.4 |
| 20260504191523 | 80 | 252 | 4.0 | 10.0 | 0.00 | 0.00 | 0.00 | 54 | 1013.5 |
| 20260504190519 | 80 | 222 | 3.0 | 8.0 | 0.00 | 0.00 | 0.00 | 56 | 1013.9 |
| 20260504185555 | 79 | 181 | 3.0 | 8.0 | 0.00 | 0.00 | 0.00 | 56 | 1013.9 |
| 20260504184531 | 80 | 243 | 3.0 | 8.0 | 0.00 | 0.00 | 0.00 | 56 | 1014.1 |
| 20260504183546 | 79 | 183 | 2.0 | 8.0 | 0.00 | 0.00 | 0.00 | 57 | 1014.3 |
| 20260504182522 | 79 | 169 | 3.0 | 8.0 | 0.00 | 0.00 | 0.00 | 56 | 1014.3 |
| 20260504181518 | 79 | 235 | 2.0 | 6.0 | 0.00 | 0.00 | 0.00 | 56 | 1014.4 |
| 20260504180535 | 79 | 227 | 3.0 | 7.0 | 0.00 | 0.00 | 0.00 | 57 | 1014.5 |
| 20260504175550 | 79 | 222 | 2.0 | 8.0 | 0.00 | 0.00 | 0.00 | 58 | 1014.6 |
| 20260504174526 | 78 | 164 | 4.0 | 10.0 | 0.00 | 0.00 | 0.00 | 58 | 1014.8 |
| 20260504173522 | 78 | 244 | 2.0 | 7.0 | 0.00 | 0.00 | 0.00 | 58 | 1015.0 |
| 20260504172558 | 78 | 201 | 3.0 | 8.0 | 0.00 | 0.00 | 0.00 | 58 | 1015.1 |
| 20260504171534 | 78 | 202 | 4.0 | 9.0 | 0.00 | 0.00 | 0.00 | 59 | 1015.4 |
| 20260504170529 | 77 | 208 | 3.0 | 11.0 | 0.00 | 0.00 | 0.00 | 58 | 1015.4 |
| 20260504150521 | 72 | 201 | 3.0 | 8.0 | 0.00 | 0.00 | 0.00 | 68 | 1016.3 |
| 20260504140516 | 68 | 151 | 2.0 | 6.0 | 0.00 | 0.00 | 0.00 | 72 | 1017.0 |
| 20260504130551 | 62 | 118 | 1.0 | 3.0 | 0.00 | 0.00 | 0.00 | 83 | 1017.1 |
| 20260504110522 | 45 | 0.0 | 0.0 | 0.00 | 0.00 | 0.00 | 83 | 1016.2 | |
| 20260504100517 | 45 | 0.0 | 0.0 | 0.00 | 0.00 | 0.00 | 82 | 1015.8 | |
| 20260504081532 | 46 | 0.0 | 0.0 | 0.00 | 0.00 | 0.00 | 78 | 1016.1 | |
| 20260504080528 | 46 | 0.0 | 0.0 | 0.00 | 0.00 | 0.00 | 78 | 1016.1 |